Temp
8 8 8 8 8 8 8 8 8 8 8 8 7 7 7 7 6 6 6 5 5 5 4 4 4 4 4 4 4 4 4 4 4 4 4 5 5 5 4 5 5 5 5
7 7 8 7 7 7 7 7 7 7 7 7 7 7 7 6 6 6 5 5 5 4 4 4 4 4 4 4 4 4 4 4 3 3 3 4 5 4 4 4 4 4 4
7 7 7 7 6 6 7 7 7 7 7 7 7 7 7 6 6 5 5 5 4 4 4 3 3 3 3 3 3 3 2 2 2 2 1 2 2 2 2 2 2 2 2
7 6 6 6 6 6 6 6 6 6 6 6 6 6 5 5 5 4 4 4 3 3 2 2 2 2 1 1 1 1 1 0 0 0 -0 -0 -0 -0 1 1 1 1 1
6 6 6 6 5 6 5 5 5 6 6 6 5 5 4 4 4 3 3 2 2 1 1 1 1 1 1 1 1 0 0 0 0 -0 -0 -0 -0 -1 -1 0 -0 -1 -1
6 6 5 5 5 5 5 5 5 5 5 4 4 3 3 3 2 2 2 1 1 1 0 0 0 0 0 0 0 -0 -1 -1 -1 -1 -1 -2 -2 -2 -2 -2 -1 -1 -1
6 5 5 5 5 5 4 4 4 4 4 3 3 3 3 2 2 1 1 0 -0 -0 -0 -0 -0 -0 -1 -1 -2 -2 -2 -2 -2 -2 -2 -3 -3 -3 -3 -4 -3 -3 -2
6 5 5 5 5 4 4 4 3 3 3 3 2 2 2 1 1 1 -0 -0 -1 -1 -0 -0 -1 -2 -2 -2 -2 -2 -2 -3 -3 -3 -3 -3 -3 -4 -4 -4 -5 -5 -3
6 5 5 5 4 4 4 3 3 2 2 2 2 1 1 0 -0 -1 -1 -1 -1 -1 -1 -2 -2 -2 -2 -3 -3 -3 -4 -4 -4 -4 -4 -4 -4 -5 -5 -5 -6 -8 -8
6 5 5 4 4 4 3 3 2 2 1 1 1 1 -0 -1 -2 -2 -2 -2 -2 -2 -2 -3 -3 -3 -3 -4 -4 -4 -4 -4 -5 -5 -5 -5 -5 -6 -6 -7 -7 -8 -10
5 5 4 4 4 3 3 2 2 1 1 1 0 -0 -1 -2 -2 -2 -2 -2 -2 -3 -3 -3 -4 -4 -5 -5 -5 -5 -5 -5 -5 -6 -6 -6 -7 -7 -7 -8 -8 -9 -10
4 4 4 4 3 3 2 2 1 1 0 0 -0 -1 -2 -3 -3 -3 -3 -3 -3 -3 -4 -4 -5 -5 -5 -5 -6 -6 -6 -6 -7 -7 -8 -8 -9 -9 -9 -10 -10 -10 -10
4 4 4 3 3 2 2 1 1 0 -0 -1 -2 -3 -3 -3 -3 -3 -3 -3 -3 -4 -4 -5 -5 -5 -6 -6 -6 -6 -7 -8 -9 -9 -10 -10 -11 -11 -11 -12 -12 -12 -11
4 4 3 3 2 2 1 1 0 -0 -1 -2 -3 -3 -3 -3 -3 -3 -3 -4 -4 -4 -5 -5 -6 -6 -6 -7 -7 -7 -8 -9 -10 -10 -11 -12 -12 -12 -12 -12 -12 -13 -13
3 3 3 3 2 1 1 0 -0 -1 -2 -3 -3 -4 -4 -3 -4 -3 -4 -4 -5 -5 -5 -6 -6 -7 -7 -7 -7 -9 -9 -10 -10 -11 -12 -12 -13 -13 -13 -14 -14 -14 -15
3 3 2 2 1 1 0 -1 -2 -2 -3 -4 -4 -3 -3 -4 -3 -3 -4 -5 -5 -6 -6 -6 -6 -7 -7 -8 -9 -10 -10 -11 -12 -12 -12 -13 -13 -14 -14 -15 -15 -15 -17
3 2 2 1 1 -0 -1 -2 -3 -3 -4 -4 -3 -4 -3 -4 -4 -4 -5 -5 -6 -6 -6 -6 -7 -7 -8 -9 -10 -11 -11 -12 -13 -13 -13 -14 -14 -15 -15 -15 -16 -17 -16
2 2 2 2 0 -1 -2 -3 -3 -3 -4 -4 -3 -4 -4 -4 -5 -6 -6 -6 -6 -6 -6 -6 -7 -7 -8 -10 -11 -12 -12 -12 -13 -14 -14 -14 -15 -15 -16 -16 -17 -16 -16
2 2 2 1 -1 -2 -2 -3 -3 -3 -4 -4 -4 -5 -5 -6 -6 -6 -6 -7 -7 -6 -6 -7 -8 -9 -9 -11 -12 -13 -13 -13 -14 -14 -15 -15 -15 -16 -16 -17 -16 -16 -15
2 1 1 -0 -1 -2 -3 -3 -3 -4 -4 -5 -5 -6 -6 -7 -7 -7 -7 -7 -7 -7 -7 -8 -9 -10 -11 -11 -12 -13 -14 -14 -14 -14 -15 -15 -16 -16 -18 -18 -17 -16 -15
1 0 -0 -1 -2 -2 -3 -4 -4 -5 -5 -6 -6 -7 -7 -7 -8 -8 -8 -8 -8 -8 -8 -9 -9 -10 -11 -12 -13 -13 -15 -15 -15 -15 -15 -15 -16 -18 -17 -17 -17 -16 -16
-0 -1 -1 -2 -3 -3 -4 -4 -5 -5 -6 -7 -7 -7 -8 -8 -8 -8 -8 -9 -9 -9 -9 -9 -10 -11 -12 -13 -14 -14 -15 -16 -16 -16 -16 -16 -17 -16 -16 -16 -16 -16 -16
-2 -2 -2 -3 -3 -4 -4 -5 -5 -6 -7 -7 -8 -8 -9 -9 -9 -9 -9 -9 -10 -10 -10 -10 -10 -11 -12 -14 -15 -15 -15 -16 -16 -17 -16 -17 -17 -16 -16 -16 -16 -17 -16
-2 -2 -3 -3 -4 -5 -5 -5 -6 -7 -7 -8 -8 -9 -9 -9 -9 -10 -10 -10 -10 -10 -11 -12 -12 -13 -14 -15 -15 -15 -16 -16 -17 -17 -17 -17 -17 -16 -17 -16 -16 -16 -16
-2 -3 -4 -4 -5 -5 -6 -6 -7 -8 -8 -8 -9 -9 -9 -10 -10 -10 -11 -11 -11 -12 -12 -13 -14 -15 -15 -16 -16 -16 -17 -17 -18 -18 -17 -17 -17 -16 -16 -16 -16 -16 -15
-3 -4 -5 -5 -6 -6 -7 -7 -8 -8 -9 -9 -9 -10 -10 -10 -10 -11 -11 -11 -12 -13 -14 -15 -15 -16 -16 -16 -16 -17 -17 -18 -18 -17 -18 -18 -18 -17 -16 -16 -15 -15 -15
Height
3119 3120 3121 3121 3121 3121 3121 3120 3119 3119 3118 3117 3117 3116 3114 3113 3111 3109 3107 3104 3102 3099 3096 3093 3090 3087 3083 3079 3074 3071 3067 3064 3057 3050 3046 3043 3042 3041 3038 3034 3032 3030 3027
3116 3117 3118 3118 3119 3119 3118 3117 3117 3117 3116 3115 3114 3113 3111 3109 3106 3104 3101 3099 3097 3094 3090 3087 3083 3080 3077 3072 3068 3062 3058 3055 3051 3041 3035 3027 3027 3026 3022 3021 3018 3015 3012
3111 3113 3114 3115 3117 3117 3116 3115 3115 3114 3113 3112 3110 3109 3106 3104 3101 3099 3096 3093 3091 3088 3084 3081 3077 3073 3068 3065 3060 3055 3049 3043 3043 3038 3029 3017 3010 3005 3007 3004 3002 3000 2998
3108 3110 3111 3113 3114 3115 3114 3113 3111 3110 3109 3108 3106 3103 3101 3098 3096 3094 3091 3088 3085 3082 3078 3074 3070 3066 3061 3056 3052 3047 3041 3034 3027 3024 3024 3018 3007 2993 2979 2988 2985 2984 2981
3105 3107 3109 3111 3112 3112 3111 3110 3108 3107 3105 3103 3101 3098 3096 3094 3091 3088 3085 3082 3079 3075 3072 3068 3064 3059 3054 3048 3043 3038 3033 3026 3019 3013 3006 3001 2998 2993 2984 2965 2967 2965 2964
3102 3104 3106 3108 3109 3108 3108 3106 3104 3102 3100 3098 3096 3094 3092 3089 3087 3084 3082 3078 3075 3071 3066 3061 3056 3051 3045 3039 3033 3028 3022 3016 3011 3004 2997 2989 2981 2974 2967 2960 2954 2948 2947
3099 3101 3104 3105 3105 3105 3104 3103 3101 3099 3096 3094 3092 3090 3087 3085 3082 3078 3075 3071 3067 3063 3057 3051 3046 3040 3033 3027 3021 3016 3010 3004 2998 2992 2986 2979 2973 2965 2957 2947 2939 2932 2930
3096 3099 3101 3102 3102 3102 3100 3099 3097 3094 3092 3090 3087 3085 3081 3078 3074 3070 3066 3062 3057 3052 3046 3040 3034 3029 3023 3017 3011 3005 2999 2993 2987 2982 2976 2969 2962 2954 2947 2938 2928 2917 2915
3094 3096 3098 3099 3099 3098 3097 3095 3092 3090 3088 3085 3082 3079 3075 3071 3067 3063 3058 3053 3048 3043 3036 3029 3024 3019 3013 3007 3001 2995 2989 2983 2977 2971 2964 2957 2951 2943 2935 2927 2919 2908 2897
3091 3093 3094 3095 3095 3095 3092 3090 3088 3086 3083 3080 3076 3072 3068 3064 3060 3055 3050 3045 3039 3032 3025 3020 3015 3009 3004 2997 2990 2985 2979 2972 2965 2958 2950 2944 2937 2930 2921 2914 2906 2898 2886
3089 3090 3091 3091 3091 3090 3088 3085 3083 3081 3077 3074 3070 3066 3061 3056 3051 3047 3041 3035 3029 3022 3016 3011 3006 3000 2994 2988 2981 2975 2967 2959 2952 2945 2936 2929 2921 2914 2906 2898 2890 2883 2875
3086 3086 3087 3087 3086 3084 3082 3080 3078 3075 3071 3068 3063 3058 3054 3049 3044 3038 3032 3026 3020 3013 3008 3003 2997 2990 2984 2977 2969 2961 2953 2944 2936 2928 2919 2913 2905 2898 2891 2883 2875 2866 2859
3082 3082 3082 3082 3081 3079 3077 3075 3072 3069 3065 3061 3056 3051 3046 3041 3035 3030 3023 3017 3012 3007 3001 2994 2987 2980 2973 2966 2958 2949 2940 2931 2921 2913 2905 2898 2890 2883 2875 2868 2860 2852 2845
3078 3078 3077 3077 3075 3073 3071 3069 3066 3063 3058 3054 3049 3044 3038 3033 3026 3021 3015 3009 3003 2998 2992 2985 2978 2970 2963 2954 2945 2935 2925 2916 2909 2901 2893 2885 2877 2869 2861 2854 2846 2838 2830
3073 3073 3072 3071 3070 3068 3066 3062 3059 3056 3051 3046 3041 3036 3029 3023 3018 3012 3006 3001 2995 2989 2982 2975 2968 2960 2951 2941 2930 2920 2912 2904 2896 2889 2881 2873 2865 2857 2849 2840 2833 2826 2818
3068 3067 3066 3065 3064 3062 3058 3055 3052 3048 3044 3038 3032 3026 3021 3014 3009 3004 2999 2993 2987 2981 2974 2966 2957 2948 2939 2928 2919 2909 2900 2892 2883 2874 2866 2858 2851 2843 2836 2830 2823 2817 2809
3062 3061 3060 3059 3057 3054 3051 3048 3044 3039 3035 3028 3023 3017 3012 3007 3002 2997 2990 2984 2978 2972 2963 2954 2945 2937 2927 2917 2908 2897 2888 2879 2870 2861 2852 2845 2838 2831 2824 2817 2811 2804 2800
3056 3055 3054 3051 3048 3046 3043 3040 3035 3031 3026 3020 3015 3009 3005 3000 2994 2988 2981 2975 2968 2960 2952 2943 2934 2926 2916 2905 2895 2886 2877 2868 2859 2850 2842 2835 2828 2821 2814 2807 2800 2795 2790
3050 3048 3045 3043 3040 3038 3035 3031 3027 3023 3019 3013 3007 3002 2997 2991 2984 2978 2972 2965 2957 2951 2943 2932 2923 2914 2906 2895 2884 2874 2866 2858 2850 2842 2835 2828 2819 2812 2806 2798 2789 2783 2777
3042 3040 3037 3035 3033 3029 3026 3023 3019 3015 3010 3005 3000 2994 2988 2981 2975 2969 2962 2955 2948 2940 2932 2923 2912 2902 2894 2885 2875 2865 2855 2847 2839 2833 2826 2819 2811 2803 2797 2788 2779 2769 2762
3034 3032 3030 3027 3024 3021 3018 3014 3010 3006 3002 2997 2992 2985 2978 2973 2966 2960 2954 2946 2938 2930 2922 2914 2902 2893 2884 2875 2866 2856 2847 2838 2830 2823 2816 2809 2802 2795 2787 2780 2770 2761 2752
3026 3023 3020 3018 3016 3013 3010 3006 3002 2998 2994 2989 2982 2977 2972 2965 2958 2952 2944 2937 2928 2920 2911 2902 2894 2885 2876 2865 2855 2847 2841 2833 2823 2815 2808 2800 2793 2785 2777 2769 2760 2752 2745
3017 3015 3013 3011 3008 3005 3001 2997 2994 2990 2985 2980 2976 2970 2964 2957 2950 2943 2935 2927 2918 2908 2901 2892 2882 2873 2864 2855 2847 2840 2832 2825 2815 2806 2798 2791 2782 2775 2767 2760 2752 2746 2739
3011 3009 3006 3004 3000 2996 2993 2989 2985 2981 2977 2973 2968 2962 2957 2950 2943 2934 2925 2917 2908 2899 2891 2881 2870 2861 2853 2846 2838 2830 2822 2814 2805 2796 2789 2781 2773 2765 2758 2751 2746 2739 2732
3004 3002 2999 2995 2992 2988 2983 2980 2977 2974 2969 2965 2960 2954 2948 2940 2932 2924 2915 2906 2899 2890 2880 2871 2861 2851 2843 2838 2831 2823 2815 2806 2797 2787 2780 2771 2763 2756 2750 2745 2739 2734 2727
2998 2994 2990 2987 2983 2980 2976 2973 2969 2965 2961 2956 2951 2944 2936 2929 2921 2913 2907 2901 2892 2883 2874 2865 2855 2847 2839 2831 2824 2816 2808 2800 2790 2781 2772 2764 2757 2749 2743 2738 2733 2729 2722
Wind_Speed
13 13 15 13 10 8 7 6 6 4 3 3 4 6 7 10 12 15 17 19 21 22 24 25 26 27 28 30 33 35 36 37 40 45 46 46 45 45 45 46 46 46 45
14 13 11 8 7 5 3 3 2 2 4 5 7 9 12 13 15 16 18 20 22 23 24 26 27 29 30 32 35 39 41 41 42 48 51 55 53 51 51 50 50 49 49
14 10 10 8 5 3 3 3 4 5 6 8 11 13 15 16 16 17 18 20 21 22 24 27 29 32 35 37 39 42 44 47 45 46 50 56 59 60 56 56 55 54 54
13 12 10 7 5 4 4 5 6 8 10 13 16 16 15 15 15 16 18 20 22 24 26 29 32 35 38 41 42 44 46 48 51 50 47 49 55 61 70 63 61 59 58
13 11 10 7 5 4 4 7 9 12 16 18 16 15 14 15 17 18 20 22 25 28 30 33 36 39 42 44 46 47 47 49 51 53 56 57 56 56 60 70 66 64 62
12 12 9 6 5 4 7 11 15 17 18 18 16 15 16 17 19 20 22 25 28 31 34 38 41 43 45 46 46 47 48 49 51 53 55 57 58 58 58 59 63 64 63
12 12 8 7 4 5 10 16 19 19 19 17 17 18 19 21 22 24 26 28 31 35 39 42 44 45 45 45 45 46 46 47 48 49 50 51 51 52 53 56 59 61 61
13 11 9 7 5 8 14 20 21 21 20 19 21 22 24 26 29 30 31 34 36 39 46 43 41 42 43 45 45 46 47 47 48 49 49 51 51 52 53 54 55 59 59
11 11 9 7 8 12 19 21 22 22 21 23 25 27 29 31 32 32 34 37 39 46 47 43 42 43 44 44 45 45 45 46 47 49 50 51 52 53 54 54 53 51 52
12 10 9 9 11 17 22 22 22 23 23 26 28 32 33 33 33 35 39 41 46 49 45 42 42 43 43 44 45 47 48 50 52 54 55 56 56 57 56 55 54 53 52
11 10 11 12 15 21 25 22 23 24 26 29 33 35 34 33 36 40 43 48 47 44 43 42 43 43 44 45 48 50 54 57 58 59 61 60 58 57 55 55 55 55 54
13 13 14 14 22 22 22 22 26 27 29 33 36 36 35 38 42 46 48 49 46 43 42 42 43 45 47 50 53 57 59 62 63 62 60 59 58 57 55 55 56 58 59
17 18 18 21 24 22 22 25 27 29 33 36 37 37 39 43 45 47 52 49 43 42 42 43 46 48 51 54 58 61 63 63 62 61 59 58 56 55 54 54 55 57 58
21 20 22 24 21 22 24 26 28 33 35 36 36 39 43 47 48 51 49 45 43 43 43 46 49 52 54 58 61 63 63 62 60 57 54 53 53 54 55 55 55 56 57
21 22 25 22 22 24 26 28 31 33 35 36 38 42 46 47 50 48 45 43 43 44 46 49 51 54 57 60 63 63 62 60 58 56 54 54 53 52 50 49 49 49 48
24 22 22 22 22 25 27 29 31 32 35 37 41 45 45 47 45 43 42 43 43 45 47 50 54 56 60 61 61 61 61 59 58 57 56 54 51 47 43 41 40 41 36
22 22 21 22 25 26 27 29 31 33 36 40 43 44 44 43 41 41 41 43 45 47 49 53 56 59 60 61 62 61 59 58 56 54 52 48 44 41 41 42 41 34 39
20 21 25 26 25 25 27 30 32 35 37 40 42 42 40 39 39 40 42 45 47 49 52 55 58 59 61 61 59 57 56 55 51 46 42 41 40 39 41 40 39 41 44
21 25 24 22 23 25 27 29 32 35 37 39 40 39 39 38 39 42 45 47 49 51 53 57 59 59 60 58 55 54 52 48 44 41 40 39 40 41 39 37 43 48 43
25 22 21 21 22 24 27 30 34 34 36 37 36 37 37 39 43 46 48 49 51 52 53 56 57 58 57 54 51 49 47 43 42 42 41 41 41 40 37 46 50 50 44
20 20 20 21 23 25 28 32 34 35 35 35 35 36 39 43 45 48 49 50 51 53 54 55 57 57 53 50 47 45 43 42 44 45 44 43 42 37 47 47 45 43 41
20 21 22 24 26 28 31 33 33 33 33 34 35 38 41 45 47 49 50 50 51 53 55 56 56 53 50 47 44 42 40 40 44 45 45 45 41 45 44 41 38 37 36
22 24 26 27 28 30 31 31 31 31 32 34 37 40 43 45 48 49 50 51 52 53 54 54 54 54 49 45 41 41 42 44 46 46 47 47 46 43 38 35 33 32 32
25 26 27 28 28 29 30 30 31 32 34 36 40 43 44 46 47 48 49 51 51 53 52 51 53 52 47 43 43 46 47 47 47 48 49 46 42 36 33 30 27 27 29
26 27 26 26 27 28 29 30 31 33 36 39 42 43 45 46 47 48 50 51 51 49 49 49 48 48 47 46 46 46 46 45 47 50 46 42 37 33 29 26 26 25 27
25 25 25 26 26 26 28 30 33 36 39 40 42 44 46 47 49 50 50 49 47 46 44 43 43 44 45 46 46 46 44 44 45 44 41 38 35 31 28 26 26 26 26
Wind_Direction
250 264 274 269 267 254 262 278 295 311 314 306 295 293 304 308 305 300 296 294 296 299 302 304 306 306 306 304 303 302 301 300 299 297 294 291 290 289 288 287 286 284 283
246 260 268 268 247 248 268 281 296 294 285 282 287 296 301 302 299 295 296 298 299 302 305 306 306 306 305 305 304 304 302 302 303 303 301 299 295 294 290 290 288 287 285
243 249 246 233 212 209 230 254 272 284 296 302 305 309 312 308 303 302 303 303 303 304 306 308 309 309 308 306 305 305 304 302 301 301 303 303 301 300 298 296 294 293 291
232 230 222 190 184 202 243 270 284 295 309 321 325 324 321 315 309 304 304 305 307 308 308 308 307 306 305 305 304 303 302 302 302 301 296 295 297 299 299 296 294 292 290
218 208 188 181 196 249 293 308 318 326 329 328 327 325 321 318 318 317 315 312 309 307 305 304 303 304 303 303 303 302 301 301 300 300 299 297 294 293 292 292 293 290 290
207 190 186 192 221 278 308 326 331 328 327 327 326 325 325 325 320 315 310 304 301 301 302 304 304 305 306 305 304 302 301 300 299 298 298 299 300 300 299 295 292 293 293
200 192 194 209 234 298 322 326 324 322 323 324 324 324 323 321 317 313 309 307 306 307 309 310 310 310 310 310 308 307 307 306 305 305 304 303 304 303 301 300 299 297 294
201 195 207 223 250 307 324 320 314 315 317 320 322 324 324 324 322 318 315 314 316 319 319 318 319 318 317 315 313 312 310 308 307 305 303 303 303 303 302 302 302 298 295
197 203 219 234 266 304 316 310 303 308 312 318 321 324 326 324 321 320 318 317 317 324 328 324 321 319 317 314 312 311 310 309 308 306 304 304 303 302 301 301 300 301 298
199 211 232 247 273 301 306 298 294 302 309 314 321 325 324 323 323 321 320 320 323 324 324 323 321 319 316 315 314 312 311 310 309 308 307 307 305 304 303 302 301 299 298
204 222 240 262 283 294 296 289 291 297 307 316 322 323 324 324 323 325 327 328 326 325 324 323 320 318 317 315 313 312 311 310 310 309 307 306 306 304 302 300 298 297 297
215 232 249 263 291 286 287 288 290 297 308 315 319 322 321 320 320 323 327 328 326 323 322 321 319 318 317 316 315 314 314 313 311 311 311 310 308 305 302 300 298 298 298
230 242 254 276 287 281 284 287 290 299 307 315 318 318 319 319 321 324 325 325 322 320 320 320 320 319 318 317 316 315 313 313 314 315 313 312 310 307 305 303 301 299 298
240 252 264 285 276 276 282 287 292 300 308 312 313 313 314 316 321 323 323 321 320 321 321 321 320 318 318 318 317 316 317 318 317 316 315 313 311 309 307 305 303 302 301
251 265 281 276 273 278 284 288 295 301 304 309 309 309 312 316 318 321 319 319 319 320 321 320 319 320 321 321 320 320 318 317 316 315 314 313 311 309 308 305 304 304 304
265 271 272 277 280 281 284 291 298 301 304 306 306 309 316 318 319 317 316 316 318 320 319 320 321 323 323 323 320 318 317 316 315 316 314 313 312 310 310 309 307 308 308
262 273 282 286 285 286 289 293 298 301 300 304 313 317 318 317 314 314 316 317 318 319 321 323 323 325 324 321 319 319 317 317 318 316 316 317 318 318 315 315 316 308 312
272 282 289 290 287 286 288 292 295 300 306 310 314 316 315 312 312 316 317 318 319 322 323 323 324 325 323 322 321 319 319 319 319 319 320 321 319 318 318 320 312 312 315
280 289 292 289 286 285 287 292 297 303 307 313 313 312 310 313 316 317 318 320 321 321 322 323 324 324 323 322 322 320 319 321 322 321 322 323 320 319 322 312 311 315 315
292 294 293 292 290 293 295 298 302 308 310 312 310 309 314 318 319 320 320 320 320 322 323 324 324 324 323 323 322 321 322 325 323 322 326 324 321 319 315 316 316 316 315
298 301 303 304 303 301 300 302 308 310 311 309 311 316 319 319 319 318 317 319 322 322 324 325 324 323 323 322 323 323 325 327 324 325 326 324 322 318 315 318 316 314 315
309 313 313 309 306 304 303 305 307 307 308 313 317 318 317 318 317 317 319 321 322 323 325 325 322 323 324 326 327 325 327 326 324 325 323 321 322 318 318 318 316 316 316
318 317 312 308 305 303 304 305 304 309 314 316 317 317 318 317 317 318 321 323 324 324 324 323 323 325 329 330 329 327 327 328 326 324 323 325 322 321 320 319 319 316 315
315 312 308 304 302 304 304 306 311 314 314 316 317 317 316 316 319 322 323 324 326 325 325 325 326 328 331 331 330 329 329 328 326 323 325 324 322 322 321 320 321 322 322
311 305 303 302 304 306 308 311 312 314 316 317 316 315 316 320 323 324 325 326 326 326 327 328 328 329 330 330 328 327 328 327 324 323 326 329 328 327 328 328 329 329 325
304 305 305 305 309 311 309 312 314 315 316 316 315 317 322 324 324 325 325 324 325 326 329 329 328 327 326 325 326 327 327 326 326 328 330 330 331 332 333 334 334 334 331